• Join FlightAware (Why Join?)
  • Login
  • US Flag 
09:53AM EDT


 

Airport Tracker/Info


-or-


 

Live Flight TrackerFlight Track Log ✈ SKW6345 ✈ 16-Aug-2013 ✈ KBZN - KSFO

Flight Track Log - Related Links

Times and Time Zones

All times are in EDT time to prevent confusion due to time zone crossing. See the SKW6345 flight status page for this flight to view local times or setup timezone preferences in your user account.

Time Position Orientation Groundspeed Altitude Reporting Facility
EDT Latitude Longitude Course Direction KTS MPH feet Rate Location/Type
01:54PM 45.7006 -111.2219 245° Southwest 253 291 8,100  Level Salt Lake Center
01:55PM 45.7698 -111.7974 288° West  Level FlightAware Approximate
01:55PM 45.7117 -111.3283 279° West 263 303 9,600  Level Salt Lake Center
01:56PM 45.8015 -111.9392 290° West  Level FlightAware Approximate
01:56PM 45.7239 -111.4419 279° West 276 318 11,500  Level Salt Lake Center
01:57PM 45.8355 -112.0798 283° West  Level FlightAware Approximate
01:57PM 45.7364 -111.5581 279° West 286 329 13,300  Level Salt Lake Center
01:58PM 45.8213 -112.2098 226° Southwest  Level FlightAware Approximate
01:58PM 45.7511 -111.6753 280° West 295 339 15,100  Level Salt Lake Center
01:59PM 45.7856 -111.8261 288° West 329 379 16,100 1,200 Climbing Salt Lake Center
02:00PM 45.8142 -111.9561 288° West 340 391 17,600 1,200 Climbing Salt Lake Center
02:01PM 45.8436 -112.0881 288° West 347 399 18,700 1,020 Climbing Salt Lake Center
02:02PM 45.8333 -112.2208 264° West 355 409 19,800 840 Climbing Salt Lake Center
02:03PM 45.7753 -112.3342 234° Southwest 353 406 20,500 900 Climbing Salt Lake Center
02:05PM 45.7147 -112.4497 233° Southwest 362 417 21,700 1,020 Climbing Salt Lake Center
02:06PM 45.6417 -112.5894 233° Southwest 366 421 22,700 900 Climbing Salt Lake Center
02:07PM 45.5794 -112.7075 233° Southwest 372 428 23,600 720 Climbing Salt Lake Center
02:08PM 45.5158 -112.8267 233° Southwest 375 432 24,300 600 Climbing Salt Lake Center
02:09PM 45.4522 -112.9467 233° Southwest 379 436 24,900 660 Climbing Salt Lake Center
02:10PM 45.3881 -113.0656 232° Southwest 380 437 25,700 600 Climbing Salt Lake Center
02:11PM 45.3156 -113.2036 233° Southwest 382 440 26,200 360 Climbing Salt Lake Center
02:12PM 45.2500 -113.3208 232° Southwest 393 452 26,500 420 Climbing Salt Lake Center
02:13PM 45.1769 -113.4586 233° Southwest 394 453 27,100 480 Climbing Salt Lake Center
02:14PM 45.1125 -113.5775 232° Southwest 398 458 27,500 480 Climbing Salt Lake Center
02:15PM 45.0350 -113.7169 232° Southwest 402 463 28,100 480 Climbing Salt Lake Center
02:16PM 44.9697 -113.8389 233° Southwest 405 466 28,600 480 Climbing Salt Lake Center
02:17PM 44.9011 -113.9622 232° Southwest 407 468 29,100 480 Climbing Salt Lake Center
02:18PM 44.8239 -114.1033 232° Southwest 406 467 29,600 480 Climbing Salt Lake Center
02:19PM 44.7561 -114.2222 231° Southwest 407 468 30,100 480 Climbing Salt Lake Center
02:20PM 44.6786 -114.3614 232° Southwest 404 465 30,700 480 Climbing Salt Lake Center
02:21PM 44.6128 -114.4794 232° Southwest 401 461 31,200 480 Climbing Salt Lake Center
02:22PM 44.5347 -114.6156 231° Southwest 401 461 31,700 360 Climbing Salt Lake Center
02:23PM 44.4714 -114.7311 232° Southwest 393 452 32,000 120 Climbing Salt Lake Center
02:24PM 44.3933 -114.8694 232° Southwest 401 461 32,000  Level Salt Lake Center
02:25PM 44.3242 -114.9883 231° Southwest 408 470 32,000  Level Salt Lake Center
02:26PM 44.2444 -115.1281 231° Southwest 410 472 32,000  Level Salt Lake Center
02:27PM 44.1722 -115.2492 230° Southwest 420 483 32,000  Level Salt Lake Center
02:28PM 44.1044 -115.3683 232° Southwest 411 473 32,000  Level Salt Lake Center
02:29PM 44.0236 -115.5069 231° Southwest 409 471 32,000  Level Salt Lake Center
02:30PM 43.9544 -115.6258 231° Southwest 411 473 32,000  Level Salt Lake Center
02:31PM 43.8733 -115.7642 231° Southwest 412 474 32,000  Level Salt Lake Center
02:32PM 43.8036 -115.8828 231° Southwest 412 474 32,000  Level Salt Lake Center
02:33PM 43.7233 -116.0192 231° Southwest 409 471 32,000  Level Salt Lake Center
02:35PM 43.6539 -116.1361 231° Southwest 409 471 32,000  Level Salt Lake Center
02:36PM 43.5742 -116.2714 231° Southwest 407 468 32,000  Level Salt Lake Center
02:37PM 43.5050 -116.3853 230° Southwest 404 465 32,000  Level Salt Lake Center
02:38PM 43.4364 -116.5000 231° Southwest 405 466 32,000  Level Salt Lake Center
02:39PM 43.3558 -116.6319 230° Southwest 405 466 32,000  Level Salt Lake Center
02:40PM 43.2878 -116.7447 230° Southwest 400 460 32,000  Level Salt Lake Center
02:41PM 43.2075 -116.8747 230° Southwest 401 461 32,000  Level Salt Lake Center
02:42PM 43.1392 -116.9881 230° Southwest 402 463 32,000  Level Salt Lake Center
02:43PM 43.0592 -117.1172 230° Southwest 398 458 32,000  Level Salt Lake Center
02:45PM 42.9114 -117.3572 230° Southwest 397 457 32,000  Level Salt Lake Center
02:46PM 42.8425 -117.4661 229° Southwest 397 457 32,000  Level Salt Lake Center
02:47PM 42.7617 -117.5928 229° Southwest 397 457 32,000  Level Salt Lake Center
02:48PM 42.6961 -117.7039 231° Southwest 395 455 32,000  Level Salt Lake Center
02:49PM 42.6150 -117.8292 229° Southwest 394 453 32,000  Level Salt Lake Center
02:50PM 42.5256 -117.9078 213° Southwest 400 460 32,000  Level Salt Lake Center
02:51PM 42.4275 -117.9678 204° Southwest 404 465 32,000  Level Salt Lake Center
02:52PM 42.3139 -118.0375 204° Southwest 401 461 32,000  Level Salt Lake Center
02:53PM 42.2161 -118.0981 205° Southwest 402 463 32,000  Level Salt Lake Center
02:54PM 42.1108 -118.1611 204° Southwest 400 460 32,000  Level Salt Lake Center
02:55PM 41.9967 -118.2325 205° Southwest 404 465 32,000  Level Salt Lake Center
02:56PM 41.8994 -118.2892 203° Southwest 400 460 32,000  Level Salt Lake Center
02:57PM 41.7858 -118.3581 204° Southwest 400 460 32,000  Level Salt Lake Center
02:58PM 41.6886 -118.4164 204° Southwest 400 460 32,000  Level Salt Lake Center
02:59PM 41.5750 -118.4833 204° Southwest 399 459 32,000  Level Salt Lake Center
03:00PM 41.4767 -118.5425 204° Southwest 402 463 32,000  Level Salt Lake Center
03:01PM 41.3628 -118.6086 204° Southwest 401 461 32,000  Level Salt Lake Center
03:02PM 41.2647 -118.6658 204° Southwest 402 463 32,000  Level Salt Lake Center
03:03PM 41.1489 -118.7342 204° Southwest 405 466 32,000  Level Salt Lake Center
03:05PM 41.0511 -118.7917 204° Southwest 404 465 32,000  Level Salt Lake Center
03:06PM 40.9369 -118.8583 204° Southwest 403 464 32,000  Level Salt Lake Center
03:06PM 40.8922 -118.8944 211° Southwest 408 470 32,000  Level Oakland Center
03:07PM 40.8244 -119.0028 230° Southwest 406 467 32,000  Level Oakland Center
03:08PM 40.7497 -119.1364 234° Southwest 406 467 32,000  Level Oakland Center
03:09PM 40.6836 -119.2547 234° Southwest 403 464 32,000  Level Oakland Center
03:10PM 40.6169 -119.3736 234° Southwest 404 465 32,000  Level Oakland Center
03:11PM 40.5489 -119.4975 234° Southwest 404 465 32,000  Level Oakland Center
03:12PM 40.4836 -119.6119 233° Southwest 406 467 32,000  Level Oakland Center
03:13PM 40.4036 -119.7539 234° Southwest 406 467 32,000  Level Oakland Center
03:14PM 40.3358 -119.8736 233° Southwest 410 472 32,000  Level Oakland Center
03:15PM 40.2689 -119.9908 233° Southwest 406 467 32,000  Level Oakland Center
03:16PM 40.2011 -120.1097 233° Southwest 407 468 32,000  Level Oakland Center
03:17PM 40.1319 -120.2297 233° Southwest 413 475 32,000  Level Oakland Center
03:18PM 40.0642 -120.3486 233° Southwest 411 473 32,000  Level Oakland Center
03:19PM 39.9933 -120.4708 233° Southwest 410 472 32,000  Level Oakland Center
03:20PM 39.9250 -120.5892 233° Southwest 410 472 32,000  Level Oakland Center
03:22PM 39.8368 -120.6601 229° Southwest  Level Estimated
03:23PM 39.7747 -120.8461 229° Southwest 407 468 32,000  Level Oakland Center
03:24PM 39.7058 -120.9628 233° Southwest 407 468 32,000  Level Oakland Center
03:25PM 39.6369 -121.0794 233° Southwest 406 467 32,000  Level Oakland Center
03:26PM 39.5647 -121.2022 233° Southwest 412 474 32,000  Level Oakland Center
03:27PM 39.4950 -121.3178 232° Southwest 409 471 32,000  Level Oakland Center
03:28PM 39.4161 -121.4522 233° Southwest 408 470 32,000  Level Oakland Center
03:29PM 39.3464 -121.5692 232° Southwest 412 474 32,000  Level Oakland Center
03:30PM 39.2772 -121.6850 232° Southwest 410 472 32,000  Level Oakland Center
03:31PM 39.2078 -121.8000 232° Southwest 410 472 32,000  Level Oakland Center
03:32PM 39.1378 -121.9158 232° Southwest 410 472 32,000  Level Oakland Center
03:33PM 39.0672 -122.0297 231° Southwest 410 472 32,000  Level Oakland Center
03:34PM 38.9711 -122.1525 225° Southwest 407 468 32,000 -1,140 Level Oakland Center
03:35PM 38.8919 -122.2500 224° Southwest 401 461 29,700 -2,400 Descending Oakland Center
03:36PM 38.8008 -122.3206 211° Southwest 385 443 27,100 -2,340 Descending Oakland Center
03:37PM 38.7122 -122.3892 211° Southwest 375 432 24,900 -1,500 Descending Oakland Center
03:38PM 38.6250 -122.4558 211° Southwest 355 409 24,000 -1,080 Descending Oakland Center
03:39PM 38.5386 -122.5211 211° Southwest 361 415 22,700 -1,500 Descending Oakland Center
03:40PM 38.4589 -122.5831 211° Southwest 339 390 20,900 -2,040 Descending Oakland Center
03:41PM 38.3639 -122.6536 210° Southwest 331 381 18,600 -2,040 Descending Oakland Center
03:42PM 38.2853 -122.7136 211° Southwest 332 382 16,800 -1,800 Descending Oakland Center
03:43PM 38.1989 -122.7383 193° South 328 377 14,900 -1,800 Descending Oakland Center
03:44PM 38.1097 -122.7200 171° South 325 374 13,100 -1,800 Descending Oakland Center
03:45PM 38.0197 -122.6997 170° South 330 380 11,200 -1,080 Descending Oakland Center
03:46PM 37.9178 -122.6775 170° South 322 371 11,000 -120 Descending Oakland Center
03:47PM 37.8483 -122.6172 146° Southeast 318 366 11,000  Level Oakland Center
03:48PM 37.7947 -122.5611 140° Southeast 261 300 11,000  Level Oakland Center
03:49PM 37.7503 -122.5133 140° Southeast 218 251 11,000  Level Oakland Center
03:50PM 37.7125 -122.4519 128° Southeast 234 269 11,000 -540 Level Oakland Center
03:51PM 37.6919 -122.3642 106° East 220 253 9,900 -1,380 Descending Oakland Center
03:52PM 37.6833 -122.3167 103° East 213 245 8,700 -1,860 Descending Northern Cal TRACON
03:53PM 37.6667 -122.2500 108° East 220 253 6,900 -1,380 Descending Northern Cal TRACON
03:54PM 37.6333 -122.1833 122° Southeast 203 234 6,000 -480 Descending Northern Cal TRACON
03:55PM 37.6167 -122.1167 107° East 198 228 6,000 -60 Level Northern Cal TRACON
03:56PM 37.5833 -122.0667 130° Southeast 199 229 5,900 -720 Descending Northern Cal TRACON
03:57PM 37.5500 -122.1000 218° Southwest 202 232 4,600 -1,260 Descending Northern Cal TRACON
03:58PM 37.5447 -122.1289 257° West 201 231 3,900 -1,260 Descending Oakland Center
03:59PM 37.5525 -122.2086 277° West 195 224 2,700 -960 Descending Oakland Center
04:00PM 37.5792 -122.2719 298° West 193 222 2,000 -900 Descending Oakland Center
04:01PM 37.5967 -122.3183 295° West 178 205 900 -900 Descending Oakland Center
04:02PM 37.6144 -122.3592 299° West 151 174 200 -720 Descending Oakland Center